Regional Weather Roundup
Issued by NWS

Home | Current Version | Previous Version | Text Only | Print | Product List | Glossary On
Versions: 1 2 3 4 5 6 7 8 9 10 11 12 13 14 15 16 17 18 19 20 21 22 23 24 25 26 27 28 29 30 31 32 33 34 35 36 37 38 39 40 41 42 43 44 45 46 47 48 49 50
278
ASUS43 KLSX 242307
RWRMO

WEATHER SUMMARY FOR MISSOURI
NATIONAL WEATHER SERVICE SPRINGFIELD MO
500 PM CST FRI NOV 24 2017

NOTE: "FAIR" INDICATES FEW OR NO CLOUDS BELOW 12,000 FEET WITH NO
       SIGNIFICANT WEATHER AND/OR OBSTRUCTIONS TO VISIBILITY.
       CURRENT SKY AND/OR WEATHER CONDITIONS ARE NOT AVAILABLE FOR
       CHILLICOTHE AND FARMINGTON.

MOZ001>031-035>038-043-044-053-054-250000-
...NORTHERN AND WESTERN MISSOURI...

CITY           SKY/WX    TMP DP  RH WIND       PRES   REMARKS
KANSAS CTY INT CLOUDY    69  40  34 W12       29.62R
KANSAS C DTWN  CLOUDY    68  40  35 W3        29.60R
LEE`S SUMMIT   CLOUDY    68  40  35 SW13      29.62R
ST JOSEPH      CLOUDY    66  41  40 N20       29.64R
CHILLICOTHE      N/A     68  40  35 VRB5      29.59R
KIRKSVILLE     CLEAR     68  40  35 W7        29.56R

$$
MOZ066>068-077>081-088>096-101>105-250000-
...SOUTHWEST MISSOURI...

CITY           SKY/WX    TMP DP  RH WIND       PRES   REMARKS
SPRINGFIELD    CLEAR     65  36  34 S13       29.70R
JOPLIN         PTCLDY    69  37  30 SW12      29.70R
BRANSON        CLOUDY    66  32  28 SW9       29.76S

$$
MOZ032>034-039>042-045>050-055>058-069>072-250000-
...CENTRAL MISSOURI...

CITY           SKY/WX    TMP DP  RH WIND       PRES   REMARKS
COLUMBIA       PTCLDY    67  37  33 SW14      29.60R
JEFFERSON CITY CLOUDY    71  35  26 S6        29.61R
ROLLA          PTCLDY    68  35  29 S14       29.65S
SEDALIA        CLOUDY    71  40  32 SW13      29.63R
WHITEMAN AFB   MOCLDY    70  39  33 SW17G23   29.58R
WARRENSBURG    PTCLDY    68  36  30 SW10      29.62R

$$
MOZ051-052-059>065-250000-
...EAST CENTRAL MISSOURI...

CITY           SKY/WX    TMP DP  RH WIND       PRES   REMARKS
ST LOUIS INTL  MOCLDY    69  35  28 S16G23    29.61F
SPIRIT OF STL  PTCLDY    70  35  27 SW10      29.60F
ST CHARLES     CLEAR     66  35  31 S10       29.60S

$$
MOZ072>076-082>087-097>100-106>115-250000-
...SOUTH CENTRAL AND SOUTHEAST MISSOURI...

CITY           SKY/WX    TMP DP  RH WIND       PRES   REMARKS
CAPE GIRARDEAU CLEAR     57  37  47 S8        29.78S
FARMINGTON     CLEAR     61  35  37 S15       29.71S
POPLAR BLUFF   CLEAR     58  37  45 S10       29.78S
WEST PLAINS    PTCLDY    65  33  30 S8        29.75F

$$



USA.gov is the U.S. government's official web portal to all federal, state and local government web resources and services.